Weather History for KCTB - June, 2013

Change the Weather History Date:

Tuesday, June 18, 2013

  Actual Average Record
Temperature  
Mean Temperature 65 °F 58 °F  
Max Temperature 80 °F 71 °F 92 °F (1974)
Min Temperature 50 °F 45 °F 29 °F (1949)
Degree Days  
Heating Degree Days 0 7  
Month to date heating degree days 155 161  
Since 1 June heating degree days 155 161  
Since 1 July heating degree days 8187 8449  
Cooling Degree Days 0 1  
Month to date cooling degree days 0 2  
Year to date cooling degree days 2 4  
Since 1 June cooling degree days 0 2  
Growing Degree Days 15 (Base 50)    
Moisture  
Dew Point 52 °F    
Average Humidity 65    
Maximum Humidity 93    
Minimum Humidity 36    
Precipitation  
Precipitation 0.49 in 0.08 in 2.37 in (2014)
Month to date precipitation 1.52 1.69  
Year to date precipitation 6.11 5.33  
Snow  
Snow 0.00 in - - ()
Snow Depth 0.00 in    
Sea Level Pressure  
Sea Level Pressure 29.81 in    
Wind  
Wind Speed 9 mph (NE)    
Max Wind Speed 26 mph    
Max Gust Speed 36 mph    
Visibility 9 miles    
Events Rain    
T = Trace of Precipitation, MM = Missing Value Source: NWS Daily Summary

Daily Weather History Graph

Daily Weather History Graph

Search for Another Location

Airport or City:

Trip Planner

Search our weather history database for the weather conditions in past years. The results will help you decide how hot, cold, wet, or windy it might be!

Date:

Astronomy

Jun. 18, 2013 Rise Set
Actual Time 5:26 AM MDT 9:34 PM MDT
Civil Twilight 4:44 AM MDT 10:17 PM MDT
Nautical Twilight 3:44 AM MDT 11:16 PM MDT
Astronomical Twilight 2:03 AM MDT 12:58 AM MDT
Moon 4:04 PM MDT (6/18) 1:59 AM MDT (6/18)
Length of Visible Light 17h 32m
Length of Day
16h 08m
Waxing Gibbous, 71% of the Moon is Illuminated
Jun 18
Waxing Gibbous
Jun 23
Full
Jun 29
Last Quarter
Jul 8
New
Jul 15
First Quarter

Hourly Weather History & Observations

Time (MDT) Temp. Dew Point Humidity Pressure Visibility Wind Dir Wind Speed Gust Speed Precip Events Conditions
12:56 AM 55.9 °F 48.0 °F 75% 29.88 in 10.0 mi ENE 4.6 mph - N/A   Clear
1:56 AM 55.0 °F 48.0 °F 77% 29.88 in 10.0 mi East 5.8 mph - N/A   Clear
2:56 AM 54.0 °F 48.9 °F 83% 29.88 in 10.0 mi Calm Calm - N/A   Scattered Clouds
3:56 AM 54.0 °F 48.0 °F 80% 29.86 in 10.0 mi Calm Calm - N/A   Clear
4:56 AM 53.1 °F 48.9 °F 86% 29.87 in 10.0 mi NNW 6.9 mph - N/A   Partly Cloudy
5:56 AM 50.0 °F 48.0 °F 93% 29.86 in 10.0 mi NE 8.1 mph - N/A   Partly Cloudy
6:56 AM 57.0 °F 50.0 °F 77% 29.83 in 10.0 mi SE 4.6 mph - N/A   Clear
7:56 AM 60.1 °F 52.0 °F 75% 29.83 in 10.0 mi SSE 4.6 mph - N/A   Clear
8:56 AM 63.0 °F 53.1 °F 70% 29.81 in 10.0 mi SSE 4.6 mph - N/A   Clear
9:56 AM 70.0 °F 51.1 °F 51% 29.79 in 10.0 mi ESE 11.5 mph - N/A   Clear
10:56 AM 72.0 °F 52.0 °F 49% 29.78 in 10.0 mi SSE 9.2 mph - N/A   Clear
11:56 AM 75.0 °F 54.0 °F 48% 29.75 in 10.0 mi SSE 11.5 mph - N/A   Clear
12:56 PM 75.9 °F 52.0 °F 43% 29.76 in 10.0 mi SSE 11.5 mph 19.6 mph N/A   Clear
1:56 PM 75.0 °F 52.0 °F 44% 29.77 in 10.0 mi SE 9.2 mph - N/A   Clear
2:56 PM 73.9 °F 54.0 °F 50% 29.76 in 10.0 mi ENE 8.1 mph - N/A   Clear
3:56 PM 80.1 °F 51.1 °F 36% 29.73 in 10.0 mi NNE 9.2 mph - N/A   Clear
4:56 PM 75.0 °F 48.0 °F 38% 29.70 in 10.0 mi ENE 11.5 mph - N/A   Partly Cloudy
5:56 PM 66.9 °F 59.0 °F 76% 29.78 in 9.0 mi North 20.7 mph - 0.00 in Rain Light Rain
6:44 PM 62.6 °F 51.8 °F 68% 29.86 in 2.0 mi Variable 3.5 mph - 0.17 in Rain Heavy Rain
6:54 PM 62.6 °F 50.0 °F 63% 29.83 in 7.0 mi WNW 23.0 mph 29.9 mph 0.18 in Rain Light Rain
6:56 PM 63.0 °F 48.0 °F 58% 29.77 in 7.0 mi NW 21.9 mph 29.9 mph 0.19 in Rain Rain
7:07 PM 60.8 °F 53.6 °F 77% 29.82 in 10.0 mi NW 18.4 mph - 0.00 in Rain Light Rain
7:56 PM 60.1 °F 54.0 °F 80% 29.81 in 4.0 mi WNW 13.8 mph - 0.14 in Rain Light Rain
7:58 PM 59.0 °F 53.6 °F 82% 29.87 in 2.5 mi NW 15.0 mph - 0.05 in Rain Heavy Rain
8:04 PM 57.2 °F 53.6 °F 88% 29.87 in 1.8 mi WNW 12.7 mph - 0.09 in Rain Rain
8:07 PM 57.2 °F 53.6 °F 88% 29.87 in 3.0 mi WNW 12.7 mph - 0.10 in Rain Light Rain
8:56 PM 59.0 °F 54.0 °F 83% 29.80 in 10.0 mi NW 13.8 mph - 0.11 in   Clear
9:48 PM 60.8 °F 53.6 °F 77% 29.85 in 10.0 mi NE 8.1 mph - 0.00 in   Mostly Cloudy
9:56 PM 60.1 °F 54.0 °F 80% 29.78 in 10.0 mi ENE 8.1 mph - 0.00 in   Mostly Cloudy
10:56 PM 57.9 °F 55.0 °F 90% 29.80 in 9.0 mi North 6.9 mph - 0.01 in Rain Light Rain
11:56 PM 59.0 °F 55.9 °F 90% 29.77 in 10.0 mi North 8.1 mph - 0.00 in   Overcast